Zurück zum Katalog

INTELSAT 12

PAS 12

AktivKommunikationGEO
NORAD 26590·PAYLOAD·🇪🇺 EU

Gestartet Oct 29, 2000 von Guiana Space Centre

Loading…

TLE

AktuellSource: Space-Track

Epoche: Sep 14, 2026, 06:49 UTC

1 26590U 00068A   26257.28426435 -.00000248  00000-0  00000-0 0  9997
2 26590   8.5520  63.3860 0011491 200.3607 162.6423  0.99031082 52388

Verfolge INTELSAT 12 in Echtzeit mit AllMySat

Download on the App Store